Regional Weather Roundup
Issued by NWS

Home | Current Version | Previous Version | Text Only | Print | Product List | Glossary On
Versions: 1 2 3 4 5 6 7 8 9 10 11 12 13 14 15 16 17 18 19 20 21 22 23 24 25 26 27 28 29 30 31 32 33 34 35 36 37 38 39 40 41 42 43 44 45 46 47 48 49 50
000
ASUS43 KDTX 250410
RWRMI
MICHIGAN HOURLY REGIONAL WEATHER ROUNDUP
NATIONAL WEATHER SERVICE DETROIT/PONTIAC MI
1200 AM EDT SAT MAR 25 2017

NOTE: "FAIR" INDICATES FEW OR NO CLOUDS BELOW 12,000 FEET WITH NO
SIGNIFICANT WEATHER AND/OR OBSTRUCTION TO VISIBILITY.

MIZ047>049-052>055-059>063-066>070-074>076-081>083-250500-
SOUTHEAST LOWER MICHIGAN

CITY           SKY/WX    TMP DP  RH WIND       PRES   REMARKS
ADRIAN         CLOUDY    61  53  75 W5        30.04R
ALMA           CLOUDY    38  36  91 NE12      30.13R WCI  31
ANN ARBOR      CLOUDY    48  42  80 NE9       30.07R
BAD AXE        CLOUDY    36  34  92 NE7       30.13R WCI  31
CARO           CLOUDY    38  35  90 NE3       30.12S
DETROIT CITY   CLOUDY    45  39  79 NE9       30.10R
DETROIT        CLOUDY    48  40  73 NE12      30.10R
FLINT          CLOUDY    42  36  79 E13       30.10R
GROSSE ILE     CLOUDY    47  40  77 NE10      30.07S
HILLSDALE      CLOUDY    63  52  67 SW14G21   30.03S
HOWELL         CLOUDY    45  38  78 E8        30.07F

CITY           SKY/WX    TMP DP  RH WIND       PRES   REMARKS
JACKSON        CLOUDY    48  40  73 NE7       30.06R
LAMBERTVILLE   MOCLDY    69  53  57 SW10G21   30.03R
LANSING        LGT RAIN  43  36  76 NE9       30.09R
LAPEER         CLOUDY    39  35  85 E3        30.10F
MASON          LGT RAIN  45  40  83 NE6       30.08R
MONROE         CLOUDY    55  44  68 NE14      30.05R
MT. CLEMENS    CLOUDY    42  41  95 N8        30.08R
PONTIAC        DRIZZLE   43  37  79 NE7       30.08S
PORT HOPE        N/A     35  34  96 NE7       30.13R WCI  29
PORT HURON     CLOUDY    39  34  81 N6        30.10R WCI  35
TRI CITIES     CLOUDY    36  35  96 NE12      30.15R WCI  28
MIDLAND        CLOUDY    38  33  82 NE9       30.14R WCI  32
TROY           CLOUDY    43  38  83 NE9       30.11F
SAGINAW HB     CLOUDY    36  32  87 N7        30.13R WCI  30
$$
MIZ043>046-050>051-056>058-064>065-071>073-077>080-250500-
SOUTHWEST LOWER MICHIGAN

CITY           SKY/WX    TMP DP  RH WIND       PRES   REMARKS
BATTLE CREEK   LGT RAIN  48  45  89 E9        30.05R
BENTON HARBOR  CLOUDY    42  40  92 NW7       30.04R FOG
BIG RAPIDS     CLOUDY    41  36  83 NE6       30.11R
COLDWATER      CLOUDY    64  52  64 SW10      30.02S
FREMONT        MOCLDY    43  37  77 NE10      30.07F
HOLLAND        CLOUDY    51  43  74 E15       30.04S
GRAND RAPIDS   CLOUDY    45  38  76 NE15      30.06F
IONIA          CLOUDY    41  35  81 E15G21    30.07F
KALAMAZOO      LGT RAIN  53  49  86 N8        30.05R
LUDINGTON      RAIN      37  36  97 NE6       30.12R WCI  32
MARSHALL       CLOUDY    48  42  78 NW10G18   30.07R
MOUNT PLEASANT CLOUDY    40  35  82 E9        30.13R WCI  34
MUSKEGON       CLOUDY    48  39  71 NE10      30.05F
SOUTH HAVEN    MIX PCPN  41  40  95 N5        30.01F
$$
MIZ016>042-250500-
NORTHERN LOWER MICHIGAN

CITY           SKY/WX    TMP DP  RH WIND       PRES   REMARKS
ALPENA         LGT RAIN  35  35 100 N3        30.20R
BEAVER ISLAND  CLOUDY    34  33  98 N6        30.20S WCI  29
BELLAIRE       MIX PCPN  35  32  91 N7        30.16F WCI  29
CADILLAC       LGT RAIN  35  34  96 NE8       30.10F WCI  28
CHARLEVOIX     CLOUDY    34  34 100 NE3       30.21S FOG
FRANKFORT      LGT RAIN  35  32  88 E6        30.14R WCI  30
GAYLORD        LGT RAIN  35  31  85 NE9       30.14S FOG     WCI  28
GRAYLING       LGT RAIN  34  32  93 E3        30.18R
HARBOR SPRINGS CLOUDY    34  33  95 NE6       30.18S WCI  29
HOUGHTON LAKE  LGT RAIN  34  32  92 E7        30.15R WCI  28
MANISTEE       LGT RAIN  36  34  92 E8        30.13R WCI  30
OSCODA         FLURRIES  36  34  94 N12       30.18R WCI  27
PELLSTON       CLOUDY    34  32  92 E3        30.20R
ROGERS CITY    CLOUDY    35  33  94 NE3         N/A
TRAVERSE CITY  LGT RAIN  36  34  92 NE7       30.16R WCI  30
$$
MIZ007>008-015-250500-
EASTERN UPPER MICHIGAN

CITY           SKY/WX    TMP DP  RH WIND       PRES   REMARKS
KINROSS        CLOUDY    34  32  92 NE5       30.21R WCI  30
MACKINAC ISLAN CLOUDY    32  32 100 NE7       30.19S FOG     WCI  26
NEWBERRY       CLOUDY    32  32  99 N3        30.21R
S. S. MARIE    PTCLDY    36  30  79 NE3       30.21R
MUNISING         N/A     34  32  92 NE7       30.23R WCI  28
$$
MIZ004>006-011>014-085-250500-
CENTRAL UPPER MICHIGAN

CITY           SKY/WX    TMP DP  RH WIND       PRES   REMARKS
MANISTIQUE     CLOUDY    34  32  93 N7        30.21R WCI  28
ESCANABA       CLOUDY    35  32  88 N5        30.22R WCI  31
MENOMINEE        N/A    N/A N/A N/A MISG        N/A
SAWYER-GWINN   CLOUDY    33  32  98 NE8       30.22S FOG     WCI  25
$$
MIZ001>003-009>011-084-250500-
WESTERN UPPER MICHIGAN

CITY           SKY/WX    TMP DP  RH WIND       PRES   REMARKS
IRON MOUNTAIN  CLOUDY    34  29  82 NE6       30.20R WCI  29
HOUGHTON       CLOUDY    34  25  69 NE8       30.25R WCI  27
COPPER HARBOR    N/A     34  30  85 E5        30.28S WCI  30
IRONWOOD       CLOUDY    33  31  92 E6        30.23S WCI  28
$$

ABBREVIATIONS USED IN REMARKS
   TC - TEMPERATURE IN CELSIUS
  WCI - WIND CHILL INDEX
   HX - HEAT INDEX
  VSB - VISIBILITY




USA.gov is the U.S. government's official web portal to all federal, state and local government web resources and services.